EW1566 Weather Reports


Display with metric or nautical units.
time (UTC)temp
F
wind
direction
speed
MPH
gust
MPH
rain 1hr
in
rain 24hr
in
rain mn
in
humidity
%
barometer
mb
20260504160105 74 311 7.0 12.0 0.00 0.00 0.00 24 1002.0
20260504151103 69 281 7.0 13.0 0.00 0.00 0.00 29 1002.4
20260504150603 69 281 10.0 13.0 0.00 0.00 0.00 28 1002.4
20260504150105 68 270 8.0 12.0 0.00 0.00 0.00 28 1002.4
20260504141103 63 321 9.0 13.0 0.00 0.00 0.00 35 1002.7
20260504140603 62 302 8.0 13.0 0.00 0.00 0.00 36 1002.7
20260504140105 62 309 9.0 13.0 0.00 0.00 0.00 36 1002.7
20260504130604 55 311 6.0 12.0 0.00 0.00 0.00 48 1002.4
20260504120105 49 289 3.0 3.0 0.00 0.00 0.00 52 1001.8
20260504110604 50 315 3.0 5.0 0.00 0.00 0.00 48 1001.5
20260504100604 55 143 0.0 0.0 0.00 0.00 0.00 40 1001.6
20260504100105 55 144 0.0 0.0 0.00 0.00 0.00 40 1001.6
20260504090106 55 148 1.0 3.0 0.00 0.00 0.00 41 1001.6
20260504081604 54 142 1.0 3.0 0.00 0.00 0.00 42 1002.2
20260504081104 54 187 1.0 3.0 0.00 0.00 0.00 41 1002.3
20260504080603 55 161 2.0 3.0 0.00 0.00 0.00 41 1002.3
20260504080104 55 169 2.0 3.0 0.00 0.00 0.00 40 1002.5
20260504070104 55 147 1.0 3.0 0.00 0.00 0.00 38 1003.8
20260504050604 59 125 2.0 3.0 0.00 0.00 0.00 32 1005.3
20260504050106 59 134 2.0 6.0 0.00 0.00 0.00 32 1005.4
20260504045604 59 132 3.0 5.0 0.00 0.00 0.00 32 1005.5
20260504045104 59 118 3.0 6.0 0.00 0.00 0.00 32 1005.5
20260504044604 59 125 5.0 7.0 0.00 0.00 0.00 32 1005.6
20260504044104 59 130 4.0 6.0 0.00 0.00 0.00 31 1005.6
20260504043604 59 111 5.0 8.0 0.00 0.00 0.00 31 1005.6
20260504043103 60 124 5.0 7.0 0.00 0.00 0.00 31 1005.7
20260504041604 59 94 6.0 8.0 0.00 0.00 0.00 31 1005.8
20260504041104 59 107 6.0 8.0 0.00 0.00 0.00 31 1005.8
20260504040604 59 111 4.0 5.0 0.00 0.00 0.00 31 1005.8
20260504040105 60 101 6.0 8.0 0.00 0.00 0.00 31 1005.9
20260504035604 60 103 6.0 7.0 0.00 0.00 0.00 31 1006.0
20260504035104 60 96 6.0 8.0 0.00 0.00 0.00 30 1006.1
20260504034603 61 89 7.0 9.0 0.00 0.00 0.00 30 1006.1
20260504034103 61 91 7.0 9.0 0.00 0.00 0.00 30 1006.2
20260504033105 61 82 8.0 10.0 0.00 0.00 0.00 30 1006.3
20260504032604 61 73 8.0 12.0 0.00 0.00 0.00 30 1006.3
20260504032105 62 66 9.0 12.0 0.00 0.00 0.00 30 1006.4
20260504031604 62 64 9.0 12.0 0.00 0.00 0.00 30 1006.5
20260504030604 63 73 8.0 10.0 0.00 0.00 0.00 30 1006.5
20260504030105 63 65 8.0 10.0 0.00 0.00 0.00 30 1006.6
20260504025604 63 60 8.0 10.0 0.00 0.00 0.00 29 1006.6
20260504023604 64 50 7.0 8.0 0.00 0.00 0.00 29 1006.4
20260504023105 65 59 8.0 10.0 0.00 0.00 0.00 27 1006.4
20260504022604 65 67 7.0 9.0 0.00 0.00 0.00 28 1006.3
20260504022104 65 67 8.0 9.0 0.00 0.00 0.00 27 1006.2
20260504021605 66 63 8.0 9.0 0.00 0.00 0.00 27 1006.3
20260504021105 66 64 8.0 9.0 0.00 0.00 0.00 27 1006.3
20260504020604 66 66 7.0 9.0 0.00 0.00 0.00 27 1006.2
20260504020104 66 66 8.0 9.0 0.00 0.00 0.00 26 1006.2
20260504015603 67 66 7.0 9.0 0.00 0.00 0.00 26 1006.1
20260504015105 67 65 8.0 9.0 0.00 0.00 0.00 26 1006.1
20260504014604 67 65 8.0 9.0 0.00 0.00 0.00 26 1006.1
20260504013605 68 69 8.0 9.0 0.00 0.00 0.00 26 1006.1
20260504013104 68 58 7.0 8.0 0.00 0.00 0.00 26 1006.1
20260504012604 68 58 6.0 7.0 0.00 0.00 0.00 26 1006.2
20260504011604 69 48 6.0 7.0 0.00 0.00 0.00 26 1006.2
20260504011105 69 52 6.0 8.0 0.00 0.00 0.00 25 1006.3
20260504010604 70 59 7.0 8.0 0.00 0.00 0.00 25 1006.3
20260504010105 70 45 6.0 8.0 0.00 0.00 0.00 25 1006.3
20260504005604 71 29 7.0 9.0 0.00 0.00 0.00 24 1006.4
20260504004604 71 39 7.0 10.0 0.00 0.00 0.00 23 1006.4
20260504004104 72 31 7.0 9.0 0.00 0.00 0.00 24 1006.5
20260504003604 72 42 7.0 9.0 0.00 0.00 0.00 23 1006.5
20260504002603 73 27 7.0 12.0 0.00 0.00 0.00 22 1006.5
20260504002108 73 31 9.0 12.0 0.00 0.00 0.00 20 1006.6
20260504001604 73 28 6.0 9.0 0.00 0.00 0.00 21 1006.6
20260504001104 73 35 6.0 8.0 0.00 0.00 0.00 21 1006.6
20260504000604 74 33 6.0 9.0 0.00 0.00 0.00 20 1006.6
20260504000105 74 20 7.0 8.0 0.00 0.00 0.00 18 1006.7
20260503235104 74 29 7.0 10.0 0.00 0.00 0.00 19 1006.7
20260503234103 74 22 5.0 8.0 0.00 0.00 0.00 20 1006.8
20260503233604 74 45 8.0 12.0 0.00 0.00 0.00 18 1006.8
20260503233105 74 48 9.0 12.0 0.00 0.00 0.00 19 1006.9
20260503232604 75 32 7.0 9.0 0.00 0.00 0.00 18 1006.9
20260503232104 75 29 7.0 9.0 0.00 0.00 0.00 19 1006.9
20260503231604 76 31 6.0 12.0 0.00 0.00 0.00 17 1007.0
20260503230105 76 45 8.0 10.0 0.00 0.00 0.00 16 1007.1
20260503225603 77 38 6.0 8.0 0.00 0.00 0.00 16 1007.1
20260503225103 77 356 6.0 9.0 0.00 0.00 0.00 14 1007.1
20260503224604 77 344 6.0 12.0 0.00 0.00 0.00 15 1007.2
20260503224104 77 342 6.0 12.0 0.00 0.00 0.00 15 1007.3
20260503223604 77 342 6.0 10.0 0.00 0.00 0.00 15 1007.4
20260503222604 76 8 6.0 8.0 0.00 0.00 0.00 15 1007.4
20260503222105 77 25 6.0 12.0 0.00 0.00 0.00 15 1007.4
20260503221603 77 49 7.0 12.0 0.00 0.00 0.00 15 1007.5
20260503221104 77 54 7.0 12.0 0.00 0.00 0.00 16 1007.6
20260503215604 79 278 3.0 3.0 0.00 0.00 0.00 12 1007.8
20260503215103 80 343 3.0 5.0 0.00 0.00 0.00 12 1007.9
20260503214604 80 262 1.0 6.0 0.00 0.00 0.00 13 1008.0
20260503214104 79 248 2.0 5.0 0.00 0.00 0.00 13 1008.1
20260503213604 79 241 1.0 3.0 0.00 0.00 0.00 14 1008.1
20260503213104 78 342 2.0 7.0 0.00 0.00 0.00 12 1008.1
20260503212604 78 290 2.0 8.0 0.00 0.00 0.00 13 1008.1
20260503212104 78 278 6.0 10.0 0.00 0.00 0.00 13 1008.2
20260503211604 78 339 3.0 8.0 0.00 0.00 0.00 13 1008.3
20260503211104 78 353 4.0 7.0 0.00 0.00 0.00 14 1008.3
20260503210605 78 305 7.0 9.0 0.00 0.00 0.00 14 1008.4
20260503205604 77 36 2.0 7.0 0.00 0.00 0.00 14 1008.6
20260503205104 77 26 5.0 8.0 0.00 0.00 0.00 14 1008.7
20260503204604 77 77 8.0 12.0 0.00 0.00 0.00 13 1008.7
20260503204105 78 58 5.0 12.0 0.00 0.00 0.00 16 1008.8
20260503203603 77 190 3.0 5.0 0.00 0.00 0.00 15 1008.9
20260503203105 76 34 2.0 6.0 0.00 0.00 0.00 14 1009.1
20260503202604 76 70 5.0 9.0 0.00 0.00 0.00 15 1009.2
20260503202104 76 70 5.0 10.0 0.00 0.00 0.00 15 1009.3
20260503201606 76 74 3.0 9.0 0.00 0.00 0.00 17 1009.4
20260503201104 75 30 4.0 9.0 0.00 0.00 0.00 15 1009.6
20260503200605 75 66 6.0 12.0 0.00 0.00 0.00 15 1009.6
20260503200104 75 356 6.0 15.0 0.00 0.00 0.00 17 1009.7
20260503195604 75 66 6.0 13.0 0.00 0.00 0.00 17 1009.7
20260503195104 74 13 5.0 12.0 0.00 0.00 0.00 18 1009.7
20260503194604 74 41 6.0 12.0 0.00 0.00 0.00 18 1009.7
20260503194104 74 347 6.0 12.0 0.00 0.00 0.00 16 1009.9
20260503193605 74 347 7.0 13.0 0.00 0.00 0.00 16 1009.9
20260503192604 74 61 7.0 10.0 0.00 0.00 0.00 17 1010.0
20260503192104 74 320 4.0 6.0 0.00 0.00 0.00 17 1010.0
20260503191604 74 11 6.0 14.0 0.00 0.00 0.00 18 1010.0
20260503191104 75 6 8.0 15.0 0.00 0.00 0.00 17 1010.0
20260503190604 75 24 7.0 12.0 0.00 0.00 0.00 17 1010.1
20260503190104 75 25 9.0 14.0 0.00 0.00 0.00 18 1010.0
20260503185604 75 34 9.0 14.0 0.00 0.00 0.00 17 1010.2
20260503185105 75 63 8.0 12.0 0.00 0.00 0.00 17 1010.2
20260503184604 74 351 7.0 12.0 0.00 0.00 0.00 16 1010.4
20260503183605 74 17 5.0 9.0 0.00 0.00 0.00 18 1010.6
20260503183104 74 28 5.0 10.0 0.00 0.00 0.00 18 1010.5
20260503182604 74 15 6.0 12.0 0.00 0.00 0.00 18 1010.5
20260503182104 74 1 9.0 12.0 0.00 0.00 0.00 18 1010.6
20260503181604 74 2 7.0 12.0 0.00 0.00 0.00 19 1010.7
20260503181104 74 22 6.0 12.0 0.00 0.00 0.00 18 1010.8
20260503180604 73 353 6.0 12.0 0.00 0.00 0.00 18 1011.0
20260503175605 72 61 7.0 12.0 0.00 0.00 0.00 18 1011.2
20260503175105 72 53 10.0 14.0 0.00 0.00 0.00 20 1011.3
20260503174604 72 10 6.0 12.0 0.00 0.00 0.00 20 1011.5
20260503174105 72 340 6.0 9.0 0.00 0.00 0.00 20 1011.6
20260503173604 71 9 9.0 12.0 0.00 0.00 0.00 20 1011.7
20260503173104 71 25 6.0 12.0 0.00 0.00 0.00 20 1011.7
20260503172604 71 40 7.0 12.0 0.00 0.00 0.00 21 1011.7
20260503172104 71 51 8.0 12.0 0.00 0.00 0.00 20 1011.8
20260503171605 70 10 7.0 14.0 0.00 0.00 0.00 20 1011.9
20260503170604 71 34 9.0 14.0 0.00 0.00 0.00 20 1012.0
20260503170105 71 15 11.0 17.0 0.00 0.00 0.00 21 1012.0